{"data":{"norad_id":68374,"intl_designator":"2026-061Q","name":"RASSVET-3 15","alt_names":[],"object_type":"PAYLOAD","status":"ACTIVE","operator":null,"country":"CIS","launch_date":"2026-03-23","launch_site_code":"PLMSC","launch_vehicle":null,"mission":null,"orbit_class":"UNKNOWN","rcs_meters":null,"size_class":null,"mass_kg":null,"dimensions":null,"purposes":[],"wikipedia_slug":null,"has_3d_model":false,"image_url":null,"decayed_at":null,"tle_current":{"epoch":"2026-05-25T04:42:44.421408Z","epoch_age_seconds":51938,"freshness":"FRESH","line1":"1 68374U 26061Q   26145.19634747  .00066992  00000+0  29320-3 0  9992","line2":"2 68374  82.2977  38.1505 0006298 173.4596 186.6756 15.84405018  9911","mean_motion":15.84405018,"eccentricity":0.0006298,"inclination_deg":82.2977,"raan_deg":38.1505,"arg_perigee_deg":173.4596,"mean_anomaly_deg":186.6756,"bstar":0.0002932,"rev_number":991,"period_min":90.885852016407,"perigee_km":313.78335807778,"apogee_km":322.21781298051,"semimajor_km":6696.1375855291,"source":"CELESTRAK","updated_at":"2026-05-25T13:38:07.768003Z"}}}